owner,sensor,date,latitude,longitude,air_pressure(mBar),qcFlag 
TABS,ioos:station:wmo:42046:1,2007-12-01T00:00:00Z,27.8903,-94.0367,1022.05,11111222 
TABS,ioos:station:wmo:42046:1,2007-12-01T00:30:00Z,27.8903,-94.0367,1022.23,11111222 
TABS,ioos:station:wmo:42046:1,2007-12-01T01:00:00Z,27.8903,-94.0367,1022.37,11111222 
TABS,ioos:station:wmo:42046:1,2007-12-01T01:30:00Z,27.8903,-94.0367,1022.61,11111222 
TABS,ioos:station:wmo:42046:1,2007-12-01T02:00:00Z,27.8903,-94.0367,1022.59,11111222 
TABS,ioos:station:wmo:42046:1,2007-12-01T02:30:00Z,27.8903,-94.0367,1022.28,11111222 
TABS,ioos:station:wmo:42046:1,2007-12-01T03:00:00Z,27.8903,-94.0367,1022.77,11111222 
TABS,ioos:station:wmo:42046:1,2007-12-01T03:30:00Z,27.8903,-94.0367,1022.87,11111222 
TABS,ioos:station:wmo:42046:1,2007-12-01T04:00:00Z,27.8903,-94.0367,1022.49,11111222 
TABS,ioos:station:wmo:42046:1,2007-12-01T04:30:00Z,27.8903,-94.0367,1022.47,11111222 
TABS,ioos:station:wmo:42046:1,2007-12-01T05:00:00Z,27.8903,-94.0367,1022.51,11111222 
TABS,ioos:station:wmo:42046:1,2007-12-01T05:30:00Z,27.8903,-94.0367,1022.24,11111222 
TABS,ioos:station:wmo:42046:1,2007-12-01T06:00:00Z,27.8903,-94.0367,1021.88,11111222 
TABS,ioos:station:wmo:42046:1,2007-12-01T06:30:00Z,27.8903,-94.0367,1021.9,11111222 
TABS,ioos:station:wmo:42046:1,2007-12-01T07:00:00Z,27.8903,-94.0367,1021.92,11111222 
TABS,ioos:station:wmo:42046:1,2007-12-01T07:30:00Z,27.8903,-94.0367,1022.02,11111222 
TABS,ioos:station:wmo:42046:1,2007-12-01T08:00:00Z,27.8903,-94.0367,1021.92,11111222 
TABS,ioos:station:wmo:42046:1,2007-12-01T08:30:00Z,27.8903,-94.0367,1021.74,11111222 
TABS,ioos:station:wmo:42046:1,2007-12-01T09:00:00Z,27.8903,-94.0367,1021.68,11111222 
TABS,ioos:station:wmo:42046:1,2007-12-01T09:30:00Z,27.8903,-94.0367,1021.61,11111222 
TABS,ioos:station:wmo:42046:1,2007-12-01T10:00:00Z,27.8903,-94.0367,1021.14,11111222 
TABS,ioos:station:wmo:42046:1,2007-12-01T10:30:00Z,27.8903,-94.0367,1020.71,11111222 
TABS,ioos:station:wmo:42046:1,2007-12-01T11:00:00Z,27.8903,-94.0367,1020.36,11111222 
TABS,ioos:station:wmo:42046:1,2007-12-01T11:30:00Z,27.8903,-94.0367,1020.45,11111222 
TABS,ioos:station:wmo:42046:1,2007-12-01T12:00:00Z,27.8903,-94.0367,1020.19,11111222 
TABS,ioos:station:wmo:42046:1,2007-12-01T12:30:00Z,27.8903,-94.0367,1020.32,11111222 
TABS,ioos:station:wmo:42046:1,2007-12-01T13:00:00Z,27.8903,-94.0367,1020.42,11111222 
TABS,ioos:station:wmo:42046:1,2007-12-01T13:30:00Z,27.8903,-94.0367,1020.72,11111222 
TABS,ioos:station:wmo:42046:1,2007-12-01T14:00:00Z,27.8903,-94.0367,1020.97,11111222 
TABS,ioos:station:wmo:42046:1,2007-12-01T14:30:00Z,27.8903,-94.0367,1021.37,11111222 
TABS,ioos:station:wmo:42046:1,2007-12-01T15:00:00Z,27.8903,-94.0367,1021.48,11111222 
TABS,ioos:station:wmo:42046:1,2007-12-01T15:30:00Z,27.8903,-94.0367,1021.34,11111222 
TABS,ioos:station:wmo:42046:1,2007-12-01T16:00:00Z,27.8903,-94.0367,1021.27,11111222 
TABS,ioos:station:wmo:42046:1,2007-12-01T16:30:00Z,27.8903,-94.0367,1020.92,11111222 
TABS,ioos:station:wmo:42046:1,2007-12-01T17:00:00Z,27.8903,-94.0367,1020.52,11111222 
TABS,ioos:station:wmo:42046:1,2007-12-01T17:30:00Z,27.8903,-94.0367,1019.8,11111222 
TABS,ioos:station:wmo:42046:1,2007-12-01T18:00:00Z,27.8903,-94.0367,1019.39,11111222 
TABS,ioos:station:wmo:42046:1,2007-12-01T18:30:00Z,27.8903,-94.0367,1018.67,11111222 
TABS,ioos:station:wmo:42046:1,2007-12-01T19:00:00Z,27.8903,-94.0367,1018.29,11111222 
TABS,ioos:station:wmo:42046:1,2007-12-01T19:30:00Z,27.8903,-94.0367,1017.83,11111222 
TABS,ioos:station:wmo:42046:1,2007-12-01T20:00:00Z,27.8903,-94.0367,1017.5,11111222 
TABS,ioos:station:wmo:42046:1,2007-12-01T20:30:00Z,27.8903,-94.0367,1017.47,11111222 
TABS,ioos:station:wmo:42046:1,2007-12-01T21:00:00Z,27.8903,-94.0367,1017.37,11111222 
TABS,ioos:station:wmo:42046:1,2007-12-01T21:30:00Z,27.8903,-94.0367,1017.42,11111222 
TABS,ioos:station:wmo:42046:1,2007-12-01T22:00:00Z,27.8903,-94.0367,1017.17,11111222 
TABS,ioos:station:wmo:42046:1,2007-12-01T22:30:00Z,27.8903,-94.0367,1017.01,11111222 
TABS,ioos:station:wmo:42046:1,2007-12-01T23:00:00Z,27.8903,-94.0367,1017.1,11111222 
TABS,ioos:station:wmo:42046:1,2007-12-01T23:30:00Z,27.8903,-94.0367,1017.23,11111222 
TABS,ioos:station:wmo:42046:1,2007-12-02T00:00:00Z,27.8903,-94.0367,1017.15,11111222 
TABS,ioos:station:wmo:42046:1,2007-12-02T00:30:00Z,27.8903,-94.0367,1017.03,11111222 
TABS,ioos:station:wmo:42046:1,2007-12-02T01:00:00Z,27.8903,-94.0367,1017.57,11111222 
TABS,ioos:station:wmo:42046:1,2007-12-02T01:30:00Z,27.8903,-94.0367,1017.71,11111222 
TABS,ioos:station:wmo:42046:1,2007-12-02T02:00:00Z,27.8903,-94.0367,1017.69,11111222 
TABS,ioos:station:wmo:42046:1,2007-12-02T02:30:00Z,27.8903,-94.0367,1017.78,11111222 
TABS,ioos:station:wmo:42046:1,2007-12-02T03:00:00Z,27.8903,-94.0367,1018.24,11111222 
TABS,ioos:station:wmo:42046:1,2007-12-02T03:30:00Z,27.8903,-94.0367,1018.2,11111222 
TABS,ioos:station:wmo:42046:1,2007-12-02T04:00:00Z,27.8903,-94.0367,1018.19,11111222 
TABS,ioos:station:wmo:42046:1,2007-12-02T04:30:00Z,27.8903,-94.0367,1018.42,11111222 
TABS,ioos:station:wmo:42046:1,2007-12-02T05:00:00Z,27.8903,-94.0367,1018.21,11111222 
TABS,ioos:station:wmo:42046:1,2007-12-02T05:30:00Z,27.8903,-94.0367,1018.01,11111222 
TABS,ioos:station:wmo:42046:1,2007-12-02T06:00:00Z,27.8903,-94.0367,1018.07,11111222 
TABS,ioos:station:wmo:42046:1,2007-12-02T06:30:00Z,27.8903,-94.0367,1017.74,11111222 
TABS,ioos:station:wmo:42046:1,2007-12-02T07:00:00Z,27.8903,-94.0367,1017.53,11111222 
TABS,ioos:station:wmo:42046:1,2007-12-02T07:30:00Z,27.8903,-94.0367,1017.54,11111222 
TABS,ioos:station:wmo:42046:1,2007-12-02T08:00:00Z,27.8903,-94.0367,1017.56,11111222 
TABS,ioos:station:wmo:42046:1,2007-12-02T08:30:00Z,27.8903,-94.0367,1017.53,11111222 
TABS,ioos:station:wmo:42046:1,2007-12-02T09:00:00Z,27.8903,-94.0367,1017.86,11111222 
TABS,ioos:station:wmo:42046:1,2007-12-02T09:30:00Z,27.8903,-94.0367,1017.64,11111222 
TABS,ioos:station:wmo:42046:1,2007-12-02T10:00:00Z,27.8903,-94.0367,1017.62,11111222 
TABS,ioos:station:wmo:42046:1,2007-12-02T10:30:00Z,27.8903,-94.0367,1017.73,11111222 
TABS,ioos:station:wmo:42046:1,2007-12-02T11:00:00Z,27.8903,-94.0367,1017.94,11111222 
TABS,ioos:station:wmo:42046:1,2007-12-02T11:30:00Z,27.8903,-94.0367,1018.12,11111222 
TABS,ioos:station:wmo:42046:1,2007-12-02T12:00:00Z,27.8903,-94.0367,1018.4,11111222 
TABS,ioos:station:wmo:42046:1,2007-12-02T12:30:00Z,27.8903,-94.0367,1018.67,11111222 
TABS,ioos:station:wmo:42046:1,2007-12-02T13:00:00Z,27.8903,-94.0367,1019.34,11111222 
TABS,ioos:station:wmo:42046:1,2007-12-02T13:30:00Z,27.8903,-94.0367,1019.49,11111222 
TABS,ioos:station:wmo:42046:1,2007-12-02T14:00:00Z,27.8903,-94.0367,1019.77,11111222 
TABS,ioos:station:wmo:42046:1,2007-12-02T14:30:00Z,27.8903,-94.0367,1019.95,11111222 
TABS,ioos:station:wmo:42046:1,2007-12-02T15:00:00Z,27.8903,-94.0367,1020.27,11111222 
TABS,ioos:station:wmo:42046:1,2007-12-02T15:30:00Z,27.8903,-94.0367,1020.47,11111222 
TABS,ioos:station:wmo:42046:1,2007-12-02T16:00:00Z,27.8903,-94.0367,1020.45,11111222 
TABS,ioos:station:wmo:42046:1,2007-12-02T16:30:00Z,27.8903,-94.0367,1020.62,11111222 
TABS,ioos:station:wmo:42046:1,2007-12-02T17:00:00Z,27.8903,-94.0367,1019.96,11111222 
TABS,ioos:station:wmo:42046:1,2007-12-02T17:30:00Z,27.8903,-94.0367,1019.65,11111222 
TABS,ioos:station:wmo:42046:1,2007-12-02T18:00:00Z,27.8903,-94.0367,1019.49,11111222 
TABS,ioos:station:wmo:42046:1,2007-12-02T18:30:00Z,27.8903,-94.0367,1019.34,11111222 
TABS,ioos:station:wmo:42046:1,2007-12-02T19:00:00Z,27.8903,-94.0367,1019.53,11111222 
TABS,ioos:station:wmo:42046:1,2007-12-02T19:30:00Z,27.8903,-94.0367,1019.15,11111222 
TABS,ioos:station:wmo:42046:1,2007-12-02T20:00:00Z,27.8903,-94.0367,1019.58,11111222 
TABS,ioos:station:wmo:42046:1,2007-12-02T20:30:00Z,27.8903,-94.0367,1019.52,11111222 
TABS,ioos:station:wmo:42046:1,2007-12-02T21:00:00Z,27.8903,-94.0367,1019.78,11111222 
TABS,ioos:station:wmo:42046:1,2007-12-02T21:30:00Z,27.8903,-94.0367,1019.97,11111222 
TABS,ioos:station:wmo:42046:1,2007-12-02T22:00:00Z,27.8903,-94.0367,1020.07,11111222 
TABS,ioos:station:wmo:42046:1,2007-12-02T22:30:00Z,27.8903,-94.0367,1020.27,11111222 
TABS,ioos:station:wmo:42046:1,2007-12-02T23:00:00Z,27.8903,-94.0367,1020.62,11111222 
TABS,ioos:station:wmo:42046:1,2007-12-02T23:30:00Z,27.8903,-94.0367,1020.98,11111222 
TABS,ioos:station:wmo:42046:1,2007-12-03T00:00:00Z,27.8903,-94.0367,1021.03,11111222 
TABS,ioos:station:wmo:42046:1,2007-12-03T00:30:00Z,27.8903,-94.0367,1021.62,11111222 
TABS,ioos:station:wmo:42046:1,2007-12-03T01:00:00Z,27.8903,-94.0367,1021.9,11111222 
TABS,ioos:station:wmo:42046:1,2007-12-03T01:30:00Z,27.8903,-94.0367,1021.99,11111222 
TABS,ioos:station:wmo:42046:1,2007-12-03T02:00:00Z,27.8903,-94.0367,1022.15,11111222 
TABS,ioos:station:wmo:42046:1,2007-12-03T02:30:00Z,27.8903,-94.0367,1022.11,11111222 
TABS,ioos:station:wmo:42046:1,2007-12-03T03:00:00Z,27.8903,-94.0367,1022.32,11111222 
TABS,ioos:station:wmo:42046:1,2007-12-03T03:30:00Z,27.8903,-94.0367,1022.53,11111222 
TABS,ioos:station:wmo:42046:1,2007-12-03T04:00:00Z,27.8903,-94.0367,1022.58,11111222 
TABS,ioos:station:wmo:42046:1,2007-12-03T04:30:00Z,27.8903,-94.0367,1022.67,11111222 
TABS,ioos:station:wmo:42046:1,2007-12-03T05:00:00Z,27.8903,-94.0367,1022.45,11111222 
TABS,ioos:station:wmo:42046:1,2007-12-03T05:30:00Z,27.8903,-94.0367,1022.4,11111222 
TABS,ioos:station:wmo:42046:1,2007-12-03T06:00:00Z,27.8903,-94.0367,1022.33,11111222 
TABS,ioos:station:wmo:42046:1,2007-12-03T06:30:00Z,27.8903,-94.0367,1022.79,11111222 
TABS,ioos:station:wmo:42046:1,2007-12-03T07:00:00Z,27.8903,-94.0367,1023.18,11111222 
TABS,ioos:station:wmo:42046:1,2007-12-03T07:30:00Z,27.8903,-94.0367,1023.03,11111222 
TABS,ioos:station:wmo:42046:1,2007-12-03T08:00:00Z,27.8903,-94.0367,1022.94,11111222 
TABS,ioos:station:wmo:42046:1,2007-12-03T08:30:00Z,27.8903,-94.0367,1022.68,11111222 
TABS,ioos:station:wmo:42046:1,2007-12-03T09:00:00Z,27.8903,-94.0367,1023.01,11111222 
TABS,ioos:station:wmo:42046:1,2007-12-03T09:30:00Z,27.8903,-94.0367,1023.02,11111222 
TABS,ioos:station:wmo:42046:1,2007-12-03T10:00:00Z,27.8903,-94.0367,1024.31,11111222 
TABS,ioos:station:wmo:42046:1,2007-12-03T10:30:00Z,27.8903,-94.0367,1023.68,11111222 
TABS,ioos:station:wmo:42046:1,2007-12-03T11:00:00Z,27.8903,-94.0367,1023.84,11111222 
TABS,ioos:station:wmo:42046:1,2007-12-03T11:30:00Z,27.8903,-94.0367,1024.65,11111222 
TABS,ioos:station:wmo:42046:1,2007-12-03T12:00:00Z,27.8903,-94.0367,1024.84,11111222 
TABS,ioos:station:wmo:42046:1,2007-12-03T12:30:00Z,27.8903,-94.0367,1025.56,11111222 
TABS,ioos:station:wmo:42046:1,2007-12-03T13:00:00Z,27.8903,-94.0367,1025.7,11111222 
TABS,ioos:station:wmo:42046:1,2007-12-03T13:30:00Z,27.8903,-94.0367,1026.43,11111222 
TABS,ioos:station:wmo:42046:1,2007-12-03T14:00:00Z,27.8903,-94.0367,1026.44,11111222 
TABS,ioos:station:wmo:42046:1,2007-12-03T14:30:00Z,27.8903,-94.0367,1027.15,11111222 
TABS,ioos:station:wmo:42046:1,2007-12-03T15:00:00Z,27.8903,-94.0367,1027.07,11111222 
TABS,ioos:station:wmo:42046:1,2007-12-03T15:30:00Z,27.8903,-94.0367,1027.57,11111222 
TABS,ioos:station:wmo:42046:1,2007-12-03T16:00:00Z,27.8903,-94.0367,1027.58,11111222 
TABS,ioos:station:wmo:42046:1,2007-12-03T16:30:00Z,27.8903,-94.0367,1028.32,11111222 
TABS,ioos:station:wmo:42046:1,2007-12-03T17:00:00Z,27.8903,-94.0367,1028.16,11111222 
TABS,ioos:station:wmo:42046:1,2007-12-03T17:30:00Z,27.8903,-94.0367,1027.92,11111222 
TABS,ioos:station:wmo:42046:1,2007-12-03T18:00:00Z,27.8903,-94.0367,1027.4,11111222 
TABS,ioos:station:wmo:42046:1,2007-12-03T18:30:00Z,27.8903,-94.0367,1026.86,11111222 
TABS,ioos:station:wmo:42046:1,2007-12-03T19:00:00Z,27.8903,-94.0367,1026.1,11111222 
TABS,ioos:station:wmo:42046:1,2007-12-03T19:30:00Z,27.8903,-94.0367,1025.74,11111222 
TABS,ioos:station:wmo:42046:1,2007-12-03T20:00:00Z,27.8903,-94.0367,1025.46,11111222 
TABS,ioos:station:wmo:42046:1,2007-12-03T20:30:00Z,27.8903,-94.0367,1025.28,11111222 
TABS,ioos:station:wmo:42046:1,2007-12-03T21:00:00Z,27.8903,-94.0367,1025.55,11111222 
TABS,ioos:station:wmo:42046:1,2007-12-03T21:30:00Z,27.8903,-94.0367,1025.28,11111222 
TABS,ioos:station:wmo:42046:1,2007-12-03T22:00:00Z,27.8903,-94.0367,1025.14,11111222 
TABS,ioos:station:wmo:42046:1,2007-12-03T22:30:00Z,27.8903,-94.0367,1025.46,11111222 
TABS,ioos:station:wmo:42046:1,2007-12-03T23:00:00Z,27.8903,-94.0367,1025.44,11111222 
TABS,ioos:station:wmo:42046:1,2007-12-03T23:30:00Z,27.8903,-94.0367,1025.44,11111222 
TABS,ioos:station:wmo:42046:1,2007-12-04T00:00:00Z,27.8903,-94.0367,1025.1,11111222 
TABS,ioos:station:wmo:42046:1,2007-12-04T00:30:00Z,27.8903,-94.0367,1025.21,11111222 
TABS,ioos:station:wmo:42046:1,2007-12-04T01:00:00Z,27.8903,-94.0367,1025.96,11111222 
TABS,ioos:station:wmo:42046:1,2007-12-04T01:30:00Z,27.8903,-94.0367,1026.03,11111222 
TABS,ioos:station:wmo:42046:1,2007-12-04T02:00:00Z,27.8903,-94.0367,1026.25,11111222 
TABS,ioos:station:wmo:42046:1,2007-12-04T02:30:00Z,27.8903,-94.0367,1026.02,11111222 
TABS,ioos:station:wmo:42046:1,2007-12-04T03:00:00Z,27.8903,-94.0367,1026.21,11111222 
TABS,ioos:station:wmo:42046:1,2007-12-04T03:30:00Z,27.8903,-94.0367,1025.66,11111222 
TABS,ioos:station:wmo:42046:1,2007-12-04T04:00:00Z,27.8903,-94.0367,1025.66,11111222 
TABS,ioos:station:wmo:42046:1,2007-12-04T04:30:00Z,27.8903,-94.0367,1025.44,11111222 
TABS,ioos:station:wmo:42046:1,2007-12-04T05:00:00Z,27.8903,-94.0367,1025.22,11111222 
TABS,ioos:station:wmo:42046:1,2007-12-04T05:30:00Z,27.8903,-94.0367,1025.24,11111222 
TABS,ioos:station:wmo:42046:1,2007-12-04T06:00:00Z,27.8903,-94.0367,1025.0,11111222 
TABS,ioos:station:wmo:42046:1,2007-12-04T06:30:00Z,27.8903,-94.0367,1024.62,11111222 
TABS,ioos:station:wmo:42046:1,2007-12-04T07:00:00Z,27.8903,-94.0367,1024.49,11111222 
TABS,ioos:station:wmo:42046:1,2007-12-04T07:30:00Z,27.8903,-94.0367,1024.13,11111222 
TABS,ioos:station:wmo:42046:1,2007-12-04T08:00:00Z,27.8903,-94.0367,1023.99,11111222 
TABS,ioos:station:wmo:42046:1,2007-12-04T08:30:00Z,27.8903,-94.0367,1024.05,11111222 
TABS,ioos:station:wmo:42046:1,2007-12-04T09:00:00Z,27.8903,-94.0367,1023.99,11111222 
TABS,ioos:station:wmo:42046:1,2007-12-04T09:30:00Z,27.8903,-94.0367,1023.72,11111222 
TABS,ioos:station:wmo:42046:1,2007-12-04T10:00:00Z,27.8903,-94.0367,1023.47,11111222 
TABS,ioos:station:wmo:42046:1,2007-12-04T10:30:00Z,27.8903,-94.0367,1023.25,11111222 
TABS,ioos:station:wmo:42046:1,2007-12-04T11:00:00Z,27.8903,-94.0367,1023.11,11111222 
TABS,ioos:station:wmo:42046:1,2007-12-04T11:30:00Z,27.8903,-94.0367,1022.91,11111222 
TABS,ioos:station:wmo:42046:1,2007-12-04T12:00:00Z,27.8903,-94.0367,1022.64,11111222 
TABS,ioos:station:wmo:42046:1,2007-12-04T12:30:00Z,27.8903,-94.0367,1022.46,11111222 
TABS,ioos:station:wmo:42046:1,2007-12-04T13:00:00Z,27.8903,-94.0367,1022.53,11111222 
TABS,ioos:station:wmo:42046:1,2007-12-04T13:30:00Z,27.8903,-94.0367,1022.72,11111222 
TABS,ioos:station:wmo:42046:1,2007-12-04T14:00:00Z,27.8903,-94.0367,1022.79,11111222 
TABS,ioos:station:wmo:42046:1,2007-12-04T14:30:00Z,27.8903,-94.0367,1022.88,11111222 
TABS,ioos:station:wmo:42046:1,2007-12-04T15:00:00Z,27.8903,-94.0367,1022.94,11111222 
TABS,ioos:station:wmo:42046:1,2007-12-04T15:30:00Z,27.8903,-94.0367,1022.87,11111222 
TABS,ioos:station:wmo:42046:1,2007-12-04T16:00:00Z,27.8903,-94.0367,1022.55,11111222 
TABS,ioos:station:wmo:42046:1,2007-12-04T16:30:00Z,27.8903,-94.0367,1022.33,11111222 
TABS,ioos:station:wmo:42046:1,2007-12-04T17:00:00Z,27.8903,-94.0367,1021.87,11111222 
TABS,ioos:station:wmo:42046:1,2007-12-04T17:30:00Z,27.8903,-94.0367,1021.31,11111222 
TABS,ioos:station:wmo:42046:1,2007-12-04T18:00:00Z,27.8903,-94.0367,1020.81,11111222 
TABS,ioos:station:wmo:42046:1,2007-12-04T18:30:00Z,27.8903,-94.0367,1020.15,11111222 
TABS,ioos:station:wmo:42046:1,2007-12-04T19:00:00Z,27.8903,-94.0367,1019.62,11111222 
TABS,ioos:station:wmo:42046:1,2007-12-04T19:30:00Z,27.8903,-94.0367,1018.98,11111222 
TABS,ioos:station:wmo:42046:1,2007-12-04T20:00:00Z,27.8903,-94.0367,1018.56,11111222 
TABS,ioos:station:wmo:42046:1,2007-12-04T20:30:00Z,27.8903,-94.0367,1018.02,11111222 
TABS,ioos:station:wmo:42046:1,2007-12-04T21:00:00Z,27.8903,-94.0367,1017.77,11111222 
TABS,ioos:station:wmo:42046:1,2007-12-04T21:30:00Z,27.8903,-94.0367,1017.48,11111222 
TABS,ioos:station:wmo:42046:1,2007-12-04T22:00:00Z,27.8903,-94.0367,1017.14,11111222 
TABS,ioos:station:wmo:42046:1,2007-12-04T22:30:00Z,27.8903,-94.0367,1016.77,11111222 
TABS,ioos:station:wmo:42046:1,2007-12-04T23:00:00Z,27.8903,-94.0367,1016.5,11111222 
TABS,ioos:station:wmo:42046:1,2007-12-04T23:30:00Z,27.8903,-94.0367,1016.17,11111222 
TABS,ioos:station:wmo:42046:1,2007-12-05T00:00:00Z,27.8903,-94.0367,1016.01,11111222 
TABS,ioos:station:wmo:42046:1,2007-12-05T00:30:00Z,27.8903,-94.0367,1015.76,11111222 
TABS,ioos:station:wmo:42046:1,2007-12-05T01:00:00Z,27.8903,-94.0367,1015.79,11111222 
TABS,ioos:station:wmo:42046:1,2007-12-05T01:30:00Z,27.8903,-94.0367,1015.74,11111222 
TABS,ioos:station:wmo:42046:1,2007-12-05T02:00:00Z,27.8903,-94.0367,1015.81,11111222 
TABS,ioos:station:wmo:42046:1,2007-12-05T02:30:00Z,27.8903,-94.0367,1015.51,11111222 
TABS,ioos:station:wmo:42046:1,2007-12-05T03:00:00Z,27.8903,-94.0367,1015.18,11111222 
TABS,ioos:station:wmo:42046:1,2007-12-05T03:30:00Z,27.8903,-94.0367,1015.07,11111222 
TABS,ioos:station:wmo:42046:1,2007-12-05T04:00:00Z,27.8903,-94.0367,1014.81,11111222 
TABS,ioos:station:wmo:42046:1,2007-12-05T04:30:00Z,27.8903,-94.0367,1014.8,11111222 
TABS,ioos:station:wmo:42046:1,2007-12-05T05:00:00Z,27.8903,-94.0367,1014.42,11111222 
TABS,ioos:station:wmo:42046:1,2007-12-05T05:30:00Z,27.8903,-94.0367,1013.89,11111222 
TABS,ioos:station:wmo:42046:1,2007-12-05T06:00:00Z,27.8903,-94.0367,1013.53,11111222 
TABS,ioos:station:wmo:42046:1,2007-12-05T06:30:00Z,27.8903,-94.0367,1013.33,11111222 
TABS,ioos:station:wmo:42046:1,2007-12-05T07:00:00Z,27.8903,-94.0367,1013.19,11111222 
TABS,ioos:station:wmo:42046:1,2007-12-05T07:30:00Z,27.8903,-94.0367,1012.98,11111222 
TABS,ioos:station:wmo:42046:1,2007-12-05T08:00:00Z,27.8903,-94.0367,1012.94,11111222 
TABS,ioos:station:wmo:42046:1,2007-12-05T08:30:00Z,27.8903,-94.0367,1012.61,11111222 
TABS,ioos:station:wmo:42046:1,2007-12-05T09:00:00Z,27.8903,-94.0367,1012.48,11111222 
TABS,ioos:station:wmo:42046:1,2007-12-05T09:30:00Z,27.8903,-94.0367,1012.4,11111222 
TABS,ioos:station:wmo:42046:1,2007-12-05T10:00:00Z,27.8903,-94.0367,1012.78,11111222 
TABS,ioos:station:wmo:42046:1,2007-12-05T10:30:00Z,27.8903,-94.0367,1012.62,11111222 
TABS,ioos:station:wmo:42046:1,2007-12-05T11:00:00Z,27.8903,-94.0367,1012.53,11111222 
TABS,ioos:station:wmo:42046:1,2007-12-05T11:30:00Z,27.8903,-94.0367,1012.82,11111222 
TABS,ioos:station:wmo:42046:1,2007-12-05T12:00:00Z,27.8903,-94.0367,1012.82,11111222 
TABS,ioos:station:wmo:42046:1,2007-12-05T12:30:00Z,27.8903,-94.0367,1012.98,11111222 
TABS,ioos:station:wmo:42046:1,2007-12-05T13:00:00Z,27.8903,-94.0367,1013.14,11111222 
TABS,ioos:station:wmo:42046:1,2007-12-05T13:30:00Z,27.8903,-94.0367,1013.22,11111222 
TABS,ioos:station:wmo:42046:1,2007-12-05T14:00:00Z,27.8903,-94.0367,1013.41,11111222 
TABS,ioos:station:wmo:42046:1,2007-12-05T14:30:00Z,27.8903,-94.0367,1013.58,11111222 
TABS,ioos:station:wmo:42046:1,2007-12-05T15:00:00Z,27.8903,-94.0367,1013.71,11111222 
TABS,ioos:station:wmo:42046:1,2007-12-05T15:30:00Z,27.8903,-94.0367,1013.6,11111222 
TABS,ioos:station:wmo:42046:1,2007-12-05T16:00:00Z,27.8903,-94.0367,1013.77,11111222 
TABS,ioos:station:wmo:42046:1,2007-12-05T16:30:00Z,27.8903,-94.0367,1013.77,11111222 
TABS,ioos:station:wmo:42046:1,2007-12-05T17:00:00Z,27.8903,-94.0367,1013.38,11111222 
TABS,ioos:station:wmo:42046:1,2007-12-05T17:30:00Z,27.8903,-94.0367,1013.27,11111222 
TABS,ioos:station:wmo:42046:1,2007-12-05T18:00:00Z,27.8903,-94.0367,1012.82,11111222 
TABS,ioos:station:wmo:42046:1,2007-12-05T18:30:00Z,27.8903,-94.0367,1012.39,11111222 
TABS,ioos:station:wmo:42046:1,2007-12-05T19:00:00Z,27.8903,-94.0367,1012.0,11111222 
TABS,ioos:station:wmo:42046:1,2007-12-05T19:30:00Z,27.8903,-94.0367,1011.8,11111222 
TABS,ioos:station:wmo:42046:1,2007-12-05T20:00:00Z,27.8903,-94.0367,1011.72,11111222 
TABS,ioos:station:wmo:42046:1,2007-12-05T20:30:00Z,27.8903,-94.0367,1011.76,11111222 
TABS,ioos:station:wmo:42046:1,2007-12-05T21:00:00Z,27.8903,-94.0367,1011.71,11111222 
TABS,ioos:station:wmo:42046:1,2007-12-05T21:30:00Z,27.8903,-94.0367,1011.77,11111222 
TABS,ioos:station:wmo:42046:1,2007-12-05T22:00:00Z,27.8903,-94.0367,1011.96,11111222 
TABS,ioos:station:wmo:42046:1,2007-12-05T22:30:00Z,27.8903,-94.0367,1012.11,11111222 
TABS,ioos:station:wmo:42046:1,2007-12-05T23:00:00Z,27.8903,-94.0367,1012.39,11111222 
TABS,ioos:station:wmo:42046:1,2007-12-05T23:30:00Z,27.8903,-94.0367,1012.76,11111222 
TABS,ioos:station:wmo:42046:1,2007-12-06T00:00:00Z,27.8903,-94.0367,1013.05,11111222 
TABS,ioos:station:wmo:42046:1,2007-12-06T00:30:00Z,27.8903,-94.0367,1013.42,11111222 
TABS,ioos:station:wmo:42046:1,2007-12-06T01:00:00Z,27.8903,-94.0367,1013.62,11111222 
TABS,ioos:station:wmo:42046:1,2007-12-06T01:30:00Z,27.8903,-94.0367,1013.99,11111222 
TABS,ioos:station:wmo:42046:1,2007-12-06T02:00:00Z,27.8903,-94.0367,1014.18,11111222 
TABS,ioos:station:wmo:42046:1,2007-12-06T02:30:00Z,27.8903,-94.0367,1014.33,11111222 
TABS,ioos:station:wmo:42046:1,2007-12-06T03:00:00Z,27.8903,-94.0367,1014.56,11111222 
TABS,ioos:station:wmo:42046:1,2007-12-06T03:30:00Z,27.8903,-94.0367,1014.66,11111222 
TABS,ioos:station:wmo:42046:1,2007-12-06T04:00:00Z,27.8903,-94.0367,1014.76,11111222 
TABS,ioos:station:wmo:42046:1,2007-12-06T04:30:00Z,27.8903,-94.0367,1014.85,11111222 
TABS,ioos:station:wmo:42046:1,2007-12-06T05:00:00Z,27.8903,-94.0367,1015.01,11111222 
TABS,ioos:station:wmo:42046:1,2007-12-06T05:30:00Z,27.8903,-94.0367,1015.04,11111222 
TABS,ioos:station:wmo:42046:1,2007-12-06T06:00:00Z,27.8903,-94.0367,1015.09,11111222 
TABS,ioos:station:wmo:42046:1,2007-12-06T06:30:00Z,27.8903,-94.0367,1015.03,11111222 
TABS,ioos:station:wmo:42046:1,2007-12-06T07:00:00Z,27.8903,-94.0367,1015.19,11111222 
TABS,ioos:station:wmo:42046:1,2007-12-06T07:30:00Z,27.8903,-94.0367,1015.15,11111222 
TABS,ioos:station:wmo:42046:1,2007-12-06T08:00:00Z,27.8903,-94.0367,1015.28,11111222 
TABS,ioos:station:wmo:42046:1,2007-12-06T08:30:00Z,27.8903,-94.0367,1015.3,11111222 
TABS,ioos:station:wmo:42046:1,2007-12-06T09:00:00Z,27.8903,-94.0367,1015.43,11111222 
TABS,ioos:station:wmo:42046:1,2007-12-06T09:30:00Z,27.8903,-94.0367,1015.77,11111222 
TABS,ioos:station:wmo:42046:1,2007-12-06T10:00:00Z,27.8903,-94.0367,1015.74,11111222 
TABS,ioos:station:wmo:42046:1,2007-12-06T10:30:00Z,27.8903,-94.0367,1015.79,11111222 
TABS,ioos:station:wmo:42046:1,2007-12-06T11:00:00Z,27.8903,-94.0367,1016.02,11111222 
TABS,ioos:station:wmo:42046:1,2007-12-06T11:30:00Z,27.8903,-94.0367,1016.24,11111222 
TABS,ioos:station:wmo:42046:1,2007-12-06T12:00:00Z,27.8903,-94.0367,1016.6,11111222 
TABS,ioos:station:wmo:42046:1,2007-12-06T12:30:00Z,27.8903,-94.0367,1016.82,11111222 
TABS,ioos:station:wmo:42046:1,2007-12-06T13:00:00Z,27.8903,-94.0367,1017.16,11111222 
TABS,ioos:station:wmo:42046:1,2007-12-06T13:30:00Z,27.8903,-94.0367,1017.48,11111222 
TABS,ioos:station:wmo:42046:1,2007-12-06T14:00:00Z,27.8903,-94.0367,1017.7,11111222 
TABS,ioos:station:wmo:42046:1,2007-12-06T14:30:00Z,27.8903,-94.0367,1017.86,11111222 
TABS,ioos:station:wmo:42046:1,2007-12-06T15:00:00Z,27.8903,-94.0367,1017.96,11111222 
TABS,ioos:station:wmo:42046:1,2007-12-06T15:30:00Z,27.8903,-94.0367,1017.98,11111222 
TABS,ioos:station:wmo:42046:1,2007-12-06T16:00:00Z,27.8903,-94.0367,1017.92,11111222 
TABS,ioos:station:wmo:42046:1,2007-12-06T16:30:00Z,27.8903,-94.0367,1017.76,11111222 
TABS,ioos:station:wmo:42046:1,2007-12-06T17:00:00Z,27.8903,-94.0367,1017.49,11111222 
TABS,ioos:station:wmo:42046:1,2007-12-06T17:30:00Z,27.8903,-94.0367,1017.01,11111222 
TABS,ioos:station:wmo:42046:1,2007-12-06T18:00:00Z,27.8903,-94.0367,1016.75,11111222 
TABS,ioos:station:wmo:42046:1,2007-12-06T18:30:00Z,27.8903,-94.0367,1016.19,11111222 